Temp
51 43 39 45 46 47 46 42 40 46 51 48 47 48 53 57 55 55 56 59 61 63 67 68 70 72 72 70 68 69 69 70 70 69 70 68 69 69 68 70 72 72 73 72
45 40 51 53 50 47 45 41 40 46 51 46 46 46 52 55 56 57 57 59 61 62 64 66 67 68 69 68 69 68 69 69 70 73 73 70 70 68 70 69 70 71 71 70
41 48 55 52 46 43 42 40 41 41 48 48 45 41 46 54 57 59 60 61 63 61 61 64 67 66 68 66 67 66 65 66 68 71 71 68 69 68 66 67 68 69 70 69
44 50 51 47 44 46 37 49 46 44 40 34 47 30 43 49 50 53 57 57 60 62 64 65 65 67 68 67 66 65 64 63 64 67 70 74 74 68 68 67 68 68 68 68
43 46 45 43 45 49 42 50 47 45 40 37 38 33 38 46 45 50 54 57 60 63 63 64 66 66 69 70 68 65 64 64 64 64 65 65 68 69 68 68 67 65 65 65
46 52 48 46 52 52 53 46 45 43 36 29 38 36 36 41 45 50 53 57 61 63 64 64 68 68 68 70 69 65 64 63 64 65 65 64 68 69 68 67 65 64 63 63
41 44 49 54 46 48 48 40 31 28 29 28 41 35 37 47 51 53 54 57 59 62 63 61 63 65 66 66 67 69 65 65 64 65 64 65 69 70 68 67 65 63 62 63
32 32 46 53 47 44 43 39 31 24 27 30 38 30 38 50 53 54 56 56 59 59 60 62 64 65 65 66 68 66 61 63 64 65 66 65 70 68 69 68 65 62 62 62
32 36 51 52 53 50 43 37 43 32 35 30 32 39 47 52 51 53 54 56 57 58 60 63 63 65 64 66 66 65 63 63 64 63 65 68 68 68 68 64 63 61 61 60
39 33 47 51 51 53 46 48 36 34 27 27 35 35 37 44 46 50 50 50 52 57 58 60 63 64 64 66 66 67 65 64 65 67 69 68 67 66 64 63 61 60 59 59
39 38 41 46 47 43 43 39 41 38 35 30 29 36 48 46 48 49 52 50 51 55 59 60 63 64 65 66 66 66 67 68 68 68 68 66 64 63 63 61 59 58 59 58
42 37 36 40 49 54 50 45 43 35 33 34 35 36 51 52 51 52 52 52 53 56 59 63 62 63 65 67 68 69 71 70 68 68 65 63 62 60 59 58 58 58 55 55
41 34 32 36 42 50 44 44 46 44 40 34 32 35 53 52 51 52 51 55 56 59 59 63 64 66 67 68 70 70 69 68 66 63 63 61 60 58 57 56 57 54 52 50
49 36 38 31 38 45 40 45 47 44 36 34 33 36 46 48 48 48 51 58 55 59 60 59 60 62 62 63 65 63 62 62 61 61 60 58 57 56 55 55 53 50 50 49
47 37 41 42 45 47 47 46 47 45 43 33 38 40 45 47 48 47 52 59 59 58 58 59 58 58 58 59 58 58 58 58 59 58 58 56 56 55 54 52 48 48 49 48
47 38 41 39 47 51 46 46 47 47 45 45 45 44 50 50 50 46 47 53 55 56 55 56 56 57 56 57 57 57 57 56 57 55 55 54 54 52 50 48 48 47 46 45
44 41 39 33 42 44 41 43 44 46 45 44 41 45 51 48 47 45 45 48 51 54 54 54 55 55 55 55 56 56 56 57 57 55 54 53 51 49 47 47 46 45 44 44
44 40 40 32 38 33 45 52 51 46 45 47 47 48 49 49 49 48 47 46 50 51 52 53 54 55 56 55 55 56 57 57 56 55 54 52 50 48 47 45 44 44 45 43
44 38 38 32 32 42 45 46 45 43 42 47 46 49 49 48 51 49 47 47 50 51 51 51 54 54 54 54 55 55 54 53 54 53 52 51 51 48 46 45 45 45 44 43
45 44 39 38 33 28 38 48 52 50 39 48 49 48 47 47 46 44 45 47 49 50 51 51 52 52 52 52 53 52 52 52 51 52 52 52 51 48 46 46 44 45 44 43
35 38 33 36 34 37 45 48 52 38 38 46 50 49 46 43 43 44 46 46 50 51 51 52 51 51 51 52 52 50 51 50 51 52 52 51 50 48 47 46 45 44 43 41
37 36 31 33 29 28 48 48 40 45 48 46 50 50 47 46 45 45 45 45 47 48 49 50 49 48 49 51 51 49 48 50 51 51 50 50 50 50 48 46 44 43 41 38
34 39 39 39 36 45 48 46 47 47 45 46 48 50 49 46 45 45 44 45 46 46 46 48 48 47 48 49 50 47 48 49 50 49 47 47 47 47 47 44 43 41 39 37
42 44 38 40 42 45 48 50 49 48 45 48 50 50 49 46 46 44 44 44 45 47 47 48 47 46 45 47 47 47 48 48 47 45 44 45 43 42 43 45 44 42 39 36
41 41 40 38 43 46 48 49 50 48 48 46 48 50 49 47 45 45 44 44 44 45 45 47 46 46 45 47 46 46 46 47 45 43 43 42 42 40 39 39 41 42 37 38
43 41 36 36 45 44 45 48 51 49 46 48 46 46 49 48 46 46 44 44 45 44 45 45 45 46 46 46 46 47 48 47 45 43 43 42 41 40 40 40 36 39 39 39
MSLP
1010.65 1011.30 1011.37 1010.81 1010.75 1010.80 1010.83 1010.34 1009.07 1007.95 1007.98 1007.53 1005.95 1005.13 1004.10 1003.18 1003.29 1002.91 1002.23 1001.73 1002.12 1001.78 1001.39 1000.92 1001.13 1001.15 1001.98 1002.93 1003.93 1004.79 1005.57 1006.49 1006.59 1005.38 1005.93 1006.85 1007.21 1007.59 1007.90 1008.15 1008.26 1008.66 1009.01 1009.48
1011.35 1010.77 1009.70 1009.99 1009.94 1010.18 1010.01 1009.58 1008.36 1007.15 1007.09 1006.96 1005.93 1004.30 1003.46 1003.18 1002.21 1002.12 1001.80 1001.10 1001.33 1001.51 1001.05 1000.78 1000.71 1001.31 1001.73 1002.29 1002.98 1004.33 1005.23 1006.07 1007.13 1005.66 1005.57 1006.27 1006.92 1007.44 1007.84 1008.17 1008.48 1008.60 1009.06 1009.57
1011.34 1009.67 1009.45 1009.57 1009.47 1009.62 1009.31 1009.08 1008.12 1007.40 1006.29 1006.14 1005.83 1003.65 1003.12 1002.12 1001.64 1001.08 1000.82 1000.12 1000.18 1000.64 1000.81 1000.54 1000.33 1000.66 1001.41 1002.02 1002.39 1003.71 1004.75 1005.82 1006.92 1006.68 1005.99 1006.38 1006.79 1007.49 1008.03 1008.42 1008.64 1008.98 1009.25 1009.68
1010.71 1009.62 1009.53 1009.37 1009.18 1009.11 1008.59 1007.18 1006.89 1006.71 1006.88 1005.72 1005.08 1003.16 1001.89 1001.36 1000.92 1000.74 999.89 999.54 999.19 999.60 999.93 999.93 1000.04 1000.35 1000.59 1001.44 1002.22 1003.49 1004.27 1005.42 1006.65 1006.80 1006.93 1006.78 1006.88 1007.64 1008.06 1008.40 1008.86 1009.28 1009.55 1010.16
1010.58 1009.61 1009.47 1009.12 1008.53 1008.16 1007.08 1006.53 1006.60 1006.47 1005.95 1005.78 1004.43 1003.97 1001.16 1000.51 999.97 999.68 999.20 998.66 997.94 998.44 999.14 999.24 999.47 999.83 1000.12 1000.63 1002.14 1003.48 1004.03 1003.91 1005.71 1006.46 1007.58 1008.10 1007.49 1007.66 1008.27 1009.01 1009.62 1009.75 1010.50 1010.55
1010.57 1009.60 1009.12 1008.38 1007.83 1007.44 1006.67 1006.78 1006.66 1006.53 1006.41 1005.66 1003.83 1004.16 1000.22 999.68 998.76 998.59 998.41 997.99 997.18 997.54 998.20 998.41 998.40 999.17 999.82 1000.79 1001.85 1002.88 1002.91 1003.14 1004.44 1005.95 1007.32 1008.04 1008.21 1007.47 1008.40 1009.37 1009.96 1010.81 1011.27 1011.54
1010.94 1009.54 1008.62 1008.15 1007.89 1007.34 1007.56 1007.74 1007.08 1006.83 1006.21 1004.91 1003.41 1003.22 1000.31 999.08 998.26 997.98 997.72 997.01 996.72 996.74 997.25 997.97 998.30 999.28 1000.08 1001.04 1001.54 1001.96 1002.30 1002.42 1002.89 1004.57 1006.06 1007.18 1008.24 1007.26 1007.78 1008.56 1009.68 1010.97 1011.58 1011.79
1012.48 1010.37 1009.07 1008.27 1008.45 1008.00 1007.78 1008.48 1008.05 1007.29 1006.30 1004.77 1003.35 1002.32 1000.10 998.72 998.25 997.66 997.23 996.91 996.34 995.98 996.80 997.34 997.29 997.91 998.75 999.78 1000.48 1001.03 1001.42 1002.25 1002.67 1002.63 1004.48 1005.71 1007.86 1007.51 1007.62 1008.60 1009.57 1010.86 1011.54 1012.16
1013.39 1011.21 1009.11 1008.63 1007.81 1007.67 1007.66 1008.04 1007.77 1007.57 1006.38 1005.39 1003.12 1001.08 999.73 998.75 997.92 997.97 997.89 997.15 996.72 995.86 996.40 996.01 997.17 997.48 998.16 998.89 999.69 1000.01 1000.88 1001.09 1001.74 1003.12 1004.25 1005.85 1005.73 1007.16 1007.77 1008.76 1010.06 1011.14 1012.02 1012.36
1013.58 1011.89 1009.29 1008.03 1007.59 1007.16 1007.45 1007.54 1007.55 1007.47 1006.33 1005.02 1002.71 1001.65 1000.94 999.60 999.01 998.68 998.45 998.13 997.12 996.55 996.32 996.09 996.80 997.30 997.87 998.70 999.80 1000.42 1000.97 1001.64 1002.66 1003.97 1005.27 1005.49 1005.94 1007.09 1008.20 1009.36 1010.74 1011.78 1012.34 1012.76
1013.34 1013.16 1009.98 1009.00 1007.75 1007.57 1007.36 1007.15 1007.21 1007.04 1006.47 1005.12 1003.58 1002.10 1001.36 1000.63 999.90 998.94 998.68 998.05 997.57 996.84 995.95 996.24 996.86 997.28 997.70 998.43 999.42 1000.45 1001.61 1002.62 1003.07 1004.60 1004.98 1005.47 1006.45 1007.36 1008.42 1010.12 1011.26 1012.12 1012.99 1013.44
1012.93 1012.88 1011.52 1009.54 1007.79 1007.42 1007.22 1006.67 1006.73 1006.57 1005.74 1004.96 1004.14 1002.57 1001.27 1000.71 1000.01 999.26 998.37 997.52 996.83 996.12 995.54 996.04 996.53 997.28 997.94 998.51 999.03 999.51 1000.82 1001.89 1002.95 1004.37 1004.71 1005.75 1006.82 1007.58 1008.89 1010.43 1011.26 1012.37 1013.08 1014.10
1012.85 1012.82 1011.85 1009.18 1007.94 1007.28 1006.99 1006.47 1005.98 1005.66 1005.40 1004.69 1004.18 1002.84 1001.61 1000.97 999.92 999.13 998.32 996.58 995.33 994.92 995.32 995.97 996.81 996.99 997.83 998.91 999.81 1000.70 1001.60 1002.44 1002.97 1004.06 1004.53 1005.39 1006.65 1007.94 1009.16 1010.42 1011.83 1013.05 1013.97 1014.66
1012.58 1012.79 1012.45 1011.54 1010.01 1008.85 1007.68 1006.58 1006.00 1005.77 1005.47 1005.11 1004.46 1003.75 1002.37 1001.24 1000.21 999.15 997.89 996.45 995.05 995.22 995.99 996.54 997.51 998.19 998.92 999.80 1000.72 1001.59 1002.69 1003.37 1004.30 1004.99 1005.52 1006.45 1006.84 1008.07 1009.26 1011.26 1013.09 1013.58 1014.61 1015.33
1012.49 1012.51 1011.75 1010.48 1009.28 1008.30 1007.56 1006.87 1006.21 1005.88 1006.10 1005.55 1004.09 1003.38 1003.20 1002.09 1001.37 1000.27 999.40 998.23 997.29 996.73 997.08 997.97 998.10 998.87 999.61 1000.62 1001.48 1002.24 1003.14 1004.08 1005.04 1006.21 1007.15 1007.62 1007.98 1008.60 1010.58 1012.47 1013.33 1013.61 1015.35 1016.84
1012.34 1012.04 1011.24 1009.79 1008.47 1007.64 1007.38 1007.34 1006.89 1006.46 1006.48 1005.67 1004.61 1003.06 1003.59 1002.86 1002.09 1001.77 1001.09 1000.32 999.61 999.18 998.82 999.12 999.83 1000.03 1000.78 1001.50 1001.87 1002.77 1003.73 1004.51 1005.28 1006.74 1008.27 1008.64 1008.95 1010.68 1012.44 1013.38 1015.05 1015.03 1017.79 1018.57
1012.33 1012.03 1011.23 1009.91 1008.63 1007.28 1007.42 1007.71 1007.47 1007.04 1007.02 1006.38 1005.36 1004.84 1004.31 1003.96 1004.09 1003.67 1002.79 1002.59 1001.78 1001.18 1000.38 1000.79 1001.05 1001.49 1001.98 1002.65 1003.29 1003.81 1004.42 1005.07 1006.04 1007.05 1007.53 1009.63 1010.40 1011.97 1012.56 1015.34 1016.51 1018.07 1018.77 1018.33
1012.09 1011.93 1011.39 1010.55 1009.04 1007.97 1007.80 1007.64 1007.63 1007.59 1007.38 1006.98 1006.26 1005.63 1005.15 1004.86 1004.45 1004.62 1004.56 1004.22 1003.42 1002.57 1001.91 1002.60 1002.42 1002.78 1003.66 1004.11 1004.22 1004.59 1005.17 1006.37 1006.04 1008.51 1007.81 1009.71 1012.18 1012.52 1015.10 1016.18 1017.05 1018.29 1019.57 1018.10
1012.06 1012.02 1011.65 1011.30 1010.16 1008.45 1007.85 1008.01 1007.99 1007.91 1008.07 1008.06 1007.19 1006.21 1005.72 1005.31 1005.03 1005.25 1005.77 1005.18 1004.43 1003.78 1003.92 1003.92 1003.86 1004.26 1004.21 1004.68 1005.18 1005.93 1006.51 1006.59 1007.39 1008.23 1009.53 1009.84 1011.50 1013.39 1015.01 1016.60 1018.21 1019.73 1018.07 1018.53
1011.93 1011.78 1011.92 1011.39 1010.75 1009.41 1008.57 1007.96 1007.66 1007.53 1008.15 1008.12 1007.88 1007.22 1007.01 1006.28 1006.34 1006.97 1007.04 1006.84 1006.17 1005.84 1005.48 1005.26 1005.36 1005.17 1005.41 1003.93 1006.96 1006.62 1007.57 1008.00 1009.27 1010.36 1010.30 1011.32 1012.76 1014.14 1015.88 1017.29 1017.98 1017.96 1018.11 1020.04
1012.59 1012.30 1012.16 1011.30 1010.85 1009.52 1008.95 1008.42 1007.68 1008.50 1010.05 1008.98 1008.40 1007.98 1007.85 1007.85 1008.35 1008.23 1007.73 1007.64 1007.11 1006.89 1006.59 1006.27 1005.88 1005.89 1006.15 1006.54 1007.61 1007.66 1008.94 1009.04 1009.93 1010.71 1011.52 1012.37 1013.59 1014.62 1015.57 1016.61 1017.27 1018.46 1019.70 1020.56
1012.72 1012.61 1012.48 1011.71 1010.97 1009.91 1009.00 1008.50 1009.05 1009.94 1009.54 1009.45 1008.72 1008.42 1008.47 1008.68 1008.67 1008.60 1008.54 1008.22 1007.89 1007.36 1007.15 1006.98 1006.72 1007.04 1007.40 1007.89 1007.60 1008.75 1009.23 1010.71 1011.08 1011.44 1012.28 1013.50 1014.32 1015.18 1016.14 1016.93 1018.62 1019.83 1020.73 1021.09
1012.71 1012.18 1012.05 1011.84 1010.66 1009.58 1008.99 1009.18 1009.24 1009.66 1009.91 1009.49 1008.93 1008.54 1008.94 1008.86 1009.01 1009.32 1009.40 1009.21 1009.10 1008.72 1008.42 1008.18 1007.97 1008.06 1008.36 1008.04 1008.57 1008.83 1010.14 1011.15 1012.11 1012.59 1013.87 1014.72 1015.63 1016.49 1017.48 1018.44 1019.75 1020.39 1021.22 1021.83
1012.27 1011.74 1011.70 1011.33 1010.33 1009.67 1009.12 1008.73 1008.86 1009.29 1009.87 1009.60 1008.88 1008.90 1009.20 1009.16 1009.35 1009.67 1009.77 1009.83 1009.72 1009.62 1009.45 1009.23 1008.83 1009.21 1009.39 1009.63 1010.03 1010.41 1011.43 1012.34 1013.29 1014.23 1015.09 1015.71 1016.14 1017.55 1018.74 1019.33 1020.15 1020.68 1021.54 1022.27
1012.45 1011.69 1011.15 1010.72 1010.14 1009.67 1009.10 1008.88 1008.75 1009.02 1009.72 1010.10 1009.49 1009.42 1009.30 1009.48 1009.90 1010.08 1010.12 1010.30 1010.56 1010.55 1010.48 1010.26 1010.27 1010.24 1010.84 1011.05 1011.33 1012.18 1012.43 1013.04 1014.17 1015.15 1015.83 1016.74 1017.83 1018.56 1019.52 1020.45 1020.98 1021.72 1022.30 1022.81
1011.34 1010.56 1010.54 1010.01 1009.21 1009.19 1008.97 1008.68 1008.52 1008.81 1009.13 1009.75 1010.23 1010.20 1009.65 1009.85 1010.03 1010.31 1010.42 1010.55 1010.80 1011.08 1011.16 1011.21 1011.50 1011.66 1011.75 1012.10 1012.63 1013.27 1013.71 1014.03 1014.60 1015.95 1017.04 1017.88 1018.62 1019.68 1020.47 1021.21 1022.40 1022.74 1023.15 1023.80
Wind_Speed
3 1 10 17 14 15 14 14 21 19 10 14 23 20 19 11 8 8 11 9 7 10 8 10 13 16 20 14 12 9 8 8 8 9 10 6 6 4 2 3 6 7 6 5
5 11 19 11 13 14 15 17 22 20 13 10 13 21 19 15 19 12 12 14 11 7 7 8 11 15 14 14 14 9 8 6 7 7 7 4 5 2 3 2 4 6 7 7
7 17 16 11 5 5 9 13 18 19 17 12 16 24 18 19 17 16 14 15 12 9 10 9 12 10 11 11 14 13 10 7 3 6 3 3 5 4 3 3 4 5 6 6
10 6 6 13 13 10 15 11 20 19 11 10 7 13 19 14 17 10 13 11 13 9 11 13 13 13 14 12 11 11 12 10 5 11 4 6 7 5 2 3 5 6 8 9
10 14 8 10 7 4 13 10 14 17 17 12 18 10 13 11 15 19 15 16 15 11 14 16 19 18 18 18 16 11 10 13 8 7 5 8 2 6 6 6 9 10 8 8
17 8 5 6 6 7 11 8 11 12 3 6 14 10 20 13 19 14 8 10 11 10 13 18 20 19 19 20 16 11 12 11 11 7 5 4 8 11 10 8 8 6 6 5
9 7 5 1 10 4 5 7 6 3 2 6 1 9 12 15 8 12 10 8 9 10 12 14 16 16 16 20 22 16 14 16 16 13 8 1 11 14 16 14 10 10 6 6
5 11 4 3 2 8 5 2 4 6 4 9 5 6 6 12 5 5 3 5 5 9 9 14 20 19 20 20 18 13 9 10 13 13 18 3 14 8 10 10 10 7 7 7
5 7 6 12 13 1 0 5 2 5 4 5 4 7 5 22 21 18 11 6 6 7 10 12 16 15 17 17 18 16 13 7 10 8 6 16 11 13 12 14 11 8 9 9
4 11 5 11 2 3 5 0 4 3 5 5 4 3 9 23 20 17 14 9 8 7 10 7 13 16 15 16 14 15 14 14 14 18 15 13 13 13 14 13 13 12 10 11
2 4 11 9 3 8 5 4 5 2 4 3 5 2 8 15 17 18 15 11 7 9 9 10 12 12 14 14 16 15 15 17 14 13 12 14 14 16 15 13 13 12 10 11
2 2 7 12 16 5 6 11 9 3 4 4 2 4 7 16 15 13 15 15 9 10 10 12 11 15 14 15 15 15 16 14 16 15 14 16 16 17 17 15 15 13 13 11
1 2 7 10 5 5 8 15 17 6 3 3 5 4 13 16 12 13 14 14 7 9 9 10 13 15 13 11 11 9 8 9 12 14 17 15 16 18 17 16 14 13 13 13
3 2 5 6 16 15 15 16 9 5 4 8 3 11 13 18 16 20 21 17 7 10 10 16 13 11 11 11 13 12 11 11 10 11 13 16 17 19 19 17 13 14 13 13
2 4 5 13 17 12 6 14 18 15 17 4 18 9 13 16 15 19 20 17 16 15 15 12 16 13 14 16 16 16 16 16 15 13 10 14 15 19 18 16 17 16 13 10
2 5 4 11 5 12 13 16 20 14 18 9 14 8 15 12 19 21 20 19 13 12 14 16 14 15 13 13 16 16 16 18 19 21 17 10 18 18 17 16 16 16 11 8
2 3 6 6 9 10 5 11 15 11 17 15 11 15 17 12 15 16 20 15 13 11 13 13 14 14 13 12 13 15 14 16 19 21 23 15 19 15 20 15 14 12 10 9
4 2 2 6 8 2 3 4 9 8 17 17 18 18 15 11 4 10 14 15 7 10 13 8 10 13 12 12 13 14 13 10 20 11 22 23 17 18 14 14 13 11 7 11
4 2 3 2 4 5 3 7 8 6 4 13 17 20 17 15 5 3 15 17 11 7 7 8 8 10 14 15 12 14 15 12 16 19 17 21 20 19 17 15 12 9 12 11
2 3 2 2 4 4 3 11 14 4 2 15 15 16 14 14 3 3 12 13 10 8 5 7 8 11 11 17 9 14 11 16 15 12 17 19 18 18 17 15 13 12 12 10
4 3 3 3 3 6 3 12 8 5 6 12 14 11 9 5 2 7 10 9 6 6 8 8 11 12 12 13 13 16 12 14 14 15 16 17 16 16 15 14 12 11 11 10
2 0 3 3 3 6 3 5 6 2 5 6 12 4 5 2 3 5 8 11 9 10 10 9 10 10 11 11 16 17 16 11 13 16 17 16 15 12 12 16 12 10 10 10
3 6 3 5 6 4 4 5 4 4 3 6 8 4 2 4 3 3 4 7 8 8 8 7 9 11 9 11 10 17 14 14 14 16 15 14 13 13 12 13 12 9 7 7
4 2 3 2 4 5 7 6 4 3 2 8 5 1 3 2 2 2 4 5 7 6 7 8 10 9 11 12 13 15 14 13 15 15 13 12 14 13 10 8 8 8 7 6
6 1 3 5 7 5 4 5 5 2 6 5 4 2 4 1 2 1 3 5 5 6 6 8 9 8 10 11 13 11 12 15 14 13 12 12 10 10 10 8 5 6 4 5
6 8 6 7 8 4 5 5 5 5 3 7 8 4 4 2 3 3 4 4 4 6 7 8 8 9 10 11 12 10 10 12 15 13 10 9 9 8 8 9 8 16 11 10
Wind_Direction
255 278 253 255 232 246 271 271 265 261 273 280 274 277 273 284 248 251 267 264 267 260 215 210 186 186 179 162 167 181 187 200 203 167 166 167 183 175 166 177 167 153 154 136
333 261 268 270 259 262 257 266 269 280 253 236 279 276 270 275 265 247 249 261 257 236 200 202 196 177 172 168 151 149 162 187 243 183 164 143 147 151 162 145 129 135 126 137
235 263 304 313 286 291 254 247 267 268 293 246 273 272 274 266 262 256 237 241 249 228 194 194 194 190 137 134 131 125 113 81 225 254 119 80 92 83 99 120 120 133 131 111
269 280 299 302 285 269 272 242 253 266 281 282 184 278 276 269 262 241 232 227 236 227 183 189 175 181 162 130 112 122 114 89 54 34 4 191 170 145 134 114 110 105 108 106
268 303 312 311 256 232 247 275 269 266 263 275 273 262 262 251 247 241 237 224 228 219 173 185 177 166 169 168 165 158 147 127 99 53 36 355 139 107 99 97 104 92 82 100
263 277 230 222 295 295 257 313 289 276 311 251 255 258 281 255 240 246 226 220 232 219 186 181 184 168 164 178 174 179 170 148 129 114 75 325 229 132 124 122 105 97 102 97
318 292 288 157 326 311 15 320 306 302 249 255 327 279 260 289 279 227 207 204 239 223 195 165 169 170 166 175 186 192 186 179 154 152 169 335 232 154 146 145 136 136 120 111
352 325 6 1 308 275 310 246 286 300 309 291 261 244 264 2 25 9 275 233 246 244 185 166 173 173 174 179 183 178 157 146 162 165 186 208 225 161 141 131 126 121 118 110
332 270 307 299 290 246 305 252 214 267 232 281 268 287 270 353 4 4 9 360 261 266 177 184 168 176 173 178 184 177 167 143 127 128 161 203 148 150 136 117 116 117 114 111
282 293 264 314 302 217 210 309 272 216 304 301 283 338 350 349 343 342 348 330 307 301 194 216 166 172 179 171 175 183 182 166 166 175 193 158 141 124 119 118 121 117 107 105
236 209 298 319 308 329 331 324 289 237 255 280 311 358 352 340 334 323 329 303 283 256 211 190 178 175 169 164 168 164 179 174 166 175 162 143 136 126 118 119 113 110 118 104
247 280 295 289 290 262 359 293 291 285 283 244 264 294 351 343 330 323 325 308 277 215 199 171 168 154 165 172 177 169 172 166 161 163 143 134 133 119 117 122 118 119 105 95
345 291 307 327 343 311 325 319 311 234 342 267 306 308 324 345 339 343 336 327 278 192 166 135 159 155 153 157 157 154 151 151 134 143 135 130 124 119 114 109 114 108 97 89
140 222 239 266 284 299 298 322 5 311 324 313 325 303 341 354 354 356 354 10 53 76 81 103 103 107 99 114 124 115 101 97 104 119 122 128 125 118 112 108 106 104 92 96
182 266 242 271 273 271 335 353 346 7 359 17 332 298 352 347 3 4 5 31 52 74 81 96 106 102 104 105 103 103 101 102 100 84 94 115 105 107 103 109 107 90 90 94
173 273 322 305 284 283 286 11 358 357 12 335 334 2 9 352 12 3 3 16 29 74 77 86 92 98 97 109 111 110 112 107 102 98 71 78 98 92 100 105 87 93 104 123
268 281 317 278 310 316 158 16 1 11 22 351 359 346 354 7 6 359 0 353 36 43 71 80 91 93 90 93 110 114 116 119 113 117 103 91 73 96 90 94 108 108 101 100
257 263 231 284 312 339 87 10 356 340 31 3 349 344 350 348 322 1 3 350 31 73 58 73 91 97 99 105 102 106 109 100 107 106 120 112 122 104 105 107 99 97 125 93
221 234 299 310 291 284 82 341 337 321 54 358 342 338 347 341 326 10 5 351 5 21 77 66 83 103 106 91 93 109 102 100 116 129 125 121 127 119 120 110 113 136 95 79
13 252 168 292 297 284 277 328 337 129 125 349 340 335 345 344 31 339 344 343 23 11 24 74 81 84 96 93 113 104 101 119 109 115 116 116 121 122 121 127 122 101 88 93
337 339 292 293 265 289 307 311 324 25 326 319 325 331 341 359 312 306 336 6 41 65 64 53 69 74 78 97 114 93 98 96 112 112 110 107 109 111 113 110 98 97 98 94
265 90 289 331 328 310 351 10 65 240 298 291 303 323 312 317 336 350 5 5 25 53 49 53 68 76 80 103 106 103 89 87 106 105 102 103 106 109 106 104 103 105 98 88
278 182 222 194 234 273 301 218 226 167 235 292 297 314 291 303 348 19 22 25 37 52 61 63 84 81 73 81 97 105 103 107 105 99 97 100 100 98 103 110 112 104 92 94
279 171 227 356 285 264 278 289 289 107 132 298 310 178 278 291 302 37 51 43 39 50 68 81 76 77 84 90 88 96 107 110 108 103 104 102 90 90 95 102 111 109 102 94
209 283 238 266 286 267 271 250 268 274 128 142 299 279 271 172 193 154 77 70 72 74 62 74 83 87 91 97 94 99 114 113 105 101 95 92 93 95 89 69 84 110 57 119
188 212 181 228 235 195 233 238 222 244 234 179 163 224 265 227 195 154 103 83 66 84 85 81 82 95 96 94 101 112 115 118 115 110 107 106 104 107 111 112 89 53 86 93